STARLINK-11593, 63318

Orbit data source: Space-Track

STARLINK-11593, 63318 is a payload satellite owned by SpaceX/Seattle (US) in LEO that was launched on Tue, 18 Mar 2025 UTC via an FALCON 9 launch vehicle from the Air Force Eastern Test Range (AFETR). Payload-class satellites include a variety of spacecraft equipped with specific instruments for various scientific and technological missions. These include communications satellites like Starlink; space stations such as the ISS; scientific satellites like the Hubble; Earth observation satellites from companies like Planet Labs, Umbra, and HawkEye 360; GPS; miniature CubeSats for education and research; and military/defense satellites.

Loading next visibility...
Identifier
63318, 2025-057M
Orbit
LEO
Country
Flag of USUS
Related business
Manufacturer
SpaceX/Seattle
Mission
Operational Commercial Communications
Bus & Motor
STARLINK V2MD, Unknown motor
Mass
960 kg wet, ~910 kg dry
Launch date (UTC)
2025-03-18 (9 months ago)
Launch vehicle
FALCON 9
Launch site
Air Force Eastern Test Range (AFETR)
Object type
Payload
Rocket body
Debris
Shape & HBR
Box + 2 Pan, 18.1 m
Radar Cross Section
36.964 m², Large (>1 m²)

Expand to show TLE details & history
Last TLE update: 1 day ago

TLE from 1 day ago
0 STARLINK-11593
1 63318U 25057M   25348.25430246  .00305891  00000-0  22947-2 0  9990
2 63318  43.0002  59.2537 0001388 277.8919  82.1791 15.70902403 43776
Epoch: 2025-12-14T06:06Z
TLE epoch observation values (Epoch: 2025-12-14T06:06:11.732Z)
Latitude
-0.00003°
Longitude
-115.46507°
Altitude
355.961 km
Speed
7.698 km/s
True Right ascension
03h 57m 00s
True Declination
0° 00' 00"
Sunlit
Object was in full shadow at epoch
Visualization orbit readout
Latitude
Unknown
Longitude
Unknown
Altitude
Unknown
Speed
Unknown
Apparent Right ascension
Unknown
Apparent Declination
Unknown
Sunlit
N/A
Visualization observer readout
Local Sidereal Time
13:22:57
Azimuth
Unknown
Elevation
Unknown
Doppler factor
Unknown
Orbital elements
Apogee altitude
359.233 km
Perigee altitude
357.363 km
Semi-major axis
6,736.435 km
Eccentricity
0.00014
Inclination
43.0002°
RAAN
59.2537°
Arg. of periapsis
277.8919°
True anomaly
82.19486°
Mean anomaly
82.1791°
Eccentric anomaly
82.18698°
Mean motion
3.92553 °/min
Orbital period
91.71 mins
BSTAR
0.0022947
Loading maneuver chart data...
Computing Atmospheric mass density...
Loading historical data...
Loading historical data...
Loading historical data...
Loading historical data...
Loading historical data...
Loading historical data...
Loading historical data...

Documentation

Showing up to 5 results
|